Other Public Products
Issued by NWS Charleston, SC

Current Version | Previous Version | Graphics & Text | Print | Product List | Glossary On
Versions: 1 2 3 4 5 6 7 8 9 10 11 12 13 14 15 16 17 18 19 20 21 22 23 24 25 26 27 28 29 30 31 32 33 34 35 36 37 38 39 40 41 42 43 44 45 46 47 48 49 50
737 FPUS82 KCHS 242127 OPUCHS TEST...KCHS/KSAV Gateway Observations...TEST National Weather Service Charleston SC 500 PM EDT MON JUL 24 2017 NOTE: "fair" indicates few or no clouds below 12,000 feet with no significant weather and/or obstructions to visibility. SCZ050-WAZ558-NCZ071-TXZ119-213-PAZ071-DCZ001-FLZ074-172-MI076- NYZ176-178-MAZ016-IL014-TNZ027-NJZ106-GAZ044-MD014-242200- ...Gateway Observations for Charleston International... CITY SKY/WX TMP DP RH WIND PRES REMARKS Chas Airport MOSUNNY 86 76 71 S10 29.93F HX 96 Seattle MOSUNNY 76 53 44 N12 30.01F Charlotte MOSUNNY 89 71 55 W5 29.92F HX 95 Dallas DFW MOSUNNY 91 74 57 VRB5 29.93F HX 100 Dallas Love MOSUNNY 89 74 60 E8 29.94F HX 98 Philladelphia MOSUNNY 87 67 51 SW9 29.79F HX 90 Wash National PTSUNNY 88 73 61 S12 29.81S HX 95 Baltimore PTSUNNY 90 66 45 NW7 29.80F HX 92 Miami CLOUDY 88 76 67 SE8 30.05F HX 99 Detroit PTSUNNY 72 55 55 N8G20 30.01R Newark PTSUNNY 71 60 68 NE9 29.85R Laguardia CLOUDY 68 60 75 NE10 29.85S J F K PTSUNNY 69 61 75 N14 29.86R Boston Logan HVY RAIN 58 57 97 NE17G23 29.89S VSB 1 Ft. Lauderdale PTSUNNY 88 77 69 S13 30.04 HX 100 Chicago O`Hare MOSUNNY 73 57 57 N12 30.05S Chicago Midway MOSUNNY 73 58 59 NE12 30.05R Houston Bush PTSUNNY 94 69 44 VRB6 29.95F HX 99 Houston Hobby CLOUDY 95 70 44 S14 29.95F HX 101 Nashville PTSUNNY 93 71 48 CALM 29.94F HX 100 Atlanta CLOUDY 79 73 82 W8 29.97F $$ GAZ044-118-TXZ119-213-NCZ071-DCZ001-MDZ014-506-PAZ021-071-NJZ106- NYZ176-178-MAZ106-OHZ011-021-055-MIZ076-KYZ091-ILZ014-INZ047- MNZ060-ONZ431-242200- ...Gateway Observations for Savannah International... CITY SKY/WX TMP DP RH WIND PRES REMARKS Savannah Arpt PTSUNNY 93 72 50 SW12 29.93F HX 101 Atlanta CLOUDY 79 73 82 W8 29.97F Charlotte MOSUNNY 89 71 55 W5 29.92F HX 95 Dallas DFW MOSUNNY 91 74 57 VRB5 29.93F HX 100 Houston Bush PTSUNNY 94 69 44 VRB6 29.95F HX 99 Wash National PTSUNNY 88 73 61 S12 29.81S HX 95 Wash Dulles CLOUDY 86 71 60 S16G25 29.82S HX 91 Baltimore PTSUNNY 90 66 45 NW7 29.80F HX 92 Philadelphia MOSUNNY 87 67 51 SW9 29.79F HX 90 Newark PTSUNNY 71 60 68 NE9 29.85R Laguardia CLOUDY 68 60 75 NE10 29.85S J F K PTSUNNY 69 61 75 N14 29.86R Boston HVY RAIN 58 57 97 NE17G23 29.89S VSB 1 Pittsburg PTSUNNY 77 63 61 NW16 29.91R Akron PTSUNNY 73 57 57 NW15G23 29.96R Cleveland CLOUDY 70 59 68 N12G21 30.00R Cincinnati PTSUNNY 85 67 54 NW12 29.96S Columbus PTSUNNY 79 65 62 N14G21 29.96R Detroit PTSUNNY 72 55 55 N8G20 30.01R Chicago O`Hare MOSUNNY 73 57 57 N12 30.05S Minneapolis PTSUNNY 77 59 53 SE10 30.03S Indianapolis MOSUNNY 81 64 56 NW8 29.99R Toronto Canada CLOUDY 66 59 77 N14G24 29.84R $$

USA.gov is the U.S. government's official web portal to all federal, state and local government web resources and services.